,,PressureMeas_1m,,PRMeasQMR101_1,,RHStat155_1m_1,,SRMeasQMS101R_1m,,TAStat155_1m_1,,GenWind_1,,GenWind_1,
2019-05-09, 00:00:06,VALID,918.642,VALID,0.0,VALID,98.077,VALID,0.017,VALID,19.851,INVALID,360.0,VALID,0.0,
2019-05-09, 00:01:06,VALID,918.611,VALID,0.0,VALID,97.95,VALID,-0.036,VALID,19.807,INVALID,360.0,VALID,0.0,
2019-05-09, 00:02:06,VALID,918.602,VALID,0.0,VALID,97.298,VALID,-0.03,VALID,19.633,INVALID,360.0,VALID,0.0,
2019-05-09, 00:03:06,VALID,918.6,VALID,0.0,VALID,97.267,VALID,-0.049,VALID,19.626,INVALID,360.0,VALID,0.0,
2019-05-09, 00:04:06,VALID,918.586,VALID,0.0,VALID,97.326,VALID,-0.03,VALID,19.587,INVALID,360.0,VALID,0.0,
2019-05-09, 00:05:06,VALID,918.599,VALID,0.0,VALID,97.284,VALID,-0.002,VALID,19.547,INVALID,360.0,VALID,0.0,
2019-05-09, 00:06:06,VALID,918.57,VALID,0.0,VALID,97.047,VALID,0.006,VALID,19.472,INVALID,360.0,VALID,0.0,
2019-05-09, 00:07:06,VALID,918.554,VALID,0.0,VALID,97.062,VALID,-0.002,VALID,19.459,INVALID,360.0,VALID,0.0,
2019-05-09, 00:08:06,VALID,918.536,VALID,0.0,VALID,97.453,VALID,-0.001,VALID,19.504,INVALID,360.0,VALID,0.0,
2019-05-09, 00:09:06,VALID,918.545,VALID,0.0,VALID,97.571,VALID,0.002,VALID,19.476,INVALID,360.0,VALID,0.0,
2019-05-09, 00:10:06,VALID,918.542,VALID,0.0,VALID,97.601,VALID,0.015,VALID,19.491,INVALID,360.0,VALID,0.0,
2019-05-09, 00:11:06,VALID,918.536,VALID,0.0,VALID,97.817,VALID,0.005,VALID,19.523,INVALID,360.0,VALID,0.0,
2019-05-09, 00:12:06,VALID,918.533,VALID,0.0,VALID,97.858,VALID,0.006,VALID,19.517,INVALID,360.0,VALID,0.0,
2019-05-09, 00:13:06,VALID,918.522,VALID,0.0,VALID,97.927,VALID,0.002,VALID,19.524,INVALID,360.0,VALID,0.0,
2019-05-09, 00:14:06,VALID,918.506,VALID,0.0,VALID,97.755,VALID,0.008,VALID,19.491,INVALID,360.0,VALID,0.0,
2019-05-09, 00:15:06,VALID,918.482,VALID,0.0,VALID,97.786,VALID,-0.009,VALID,19.556,INVALID,360.0,VALID,0.0,
2019-05-09, 00:16:06,VALID,918.481,VALID,0.0,VALID,97.581,VALID,-0.033,VALID,19.492,INVALID,360.0,VALID,0.0,
2019-05-09, 00:17:06,VALID,918.463,VALID,0.0,VALID,97.515,VALID,-0.021,VALID,19.562,INVALID,360.0,VALID,0.0,
2019-05-09, 00:18:06,VALID,918.46,VALID,0.0,VALID,97.75,VALID,-0.015,VALID,19.602,INVALID,360.0,VALID,0.0,
2019-05-09, 00:19:06,VALID,918.471,VALID,0.0,VALID,97.614,VALID,-0.04,VALID,19.531,INVALID,360.0,VALID,0.0,
2019-05-09, 00:20:06,VALID,918.47,VALID,0.0,VALID,97.444,VALID,-0.037,VALID,19.482,INVALID,360.0,VALID,0.0,
2019-05-09, 00:21:06,VALID,918.461,VALID,0.0,VALID,97.234,VALID,-0.026,VALID,19.537,INVALID,360.0,VALID,0.0,
2019-05-09, 00:22:06,VALID,918.452,VALID,0.0,VALID,97.596,VALID,-0.024,VALID,19.633,INVALID,360.0,VALID,0.0,
2019-05-09, 00:23:06,VALID,918.454,VALID,0.0,VALID,97.614,VALID,-0.029,VALID,19.653,INVALID,360.0,VALID,0.0,
2019-05-09, 00:24:06,VALID,918.451,VALID,0.0,VALID,97.574,VALID,-0.041,VALID,19.685,INVALID,360.0,VALID,0.0,
2019-05-09, 00:25:06,VALID,918.443,VALID,0.0,VALID,97.637,VALID,-0.021,VALID,19.795,INVALID,360.0,VALID,0.0,
2019-05-09, 00:26:06,VALID,918.451,VALID,0.0,VALID,97.485,VALID,-0.034,VALID,19.876,INVALID,360.0,VALID,0.0,
2019-05-09, 00:27:06,VALID,918.445,VALID,0.0,VALID,97.206,VALID,-0.018,VALID,19.912,INVALID,360.0,VALID,0.0,
2019-05-09, 00:28:06,VALID,918.444,VALID,0.0,VALID,96.55,VALID,-0.03,VALID,19.888,INVALID,360.0,VALID,0.0,
2019-05-09, 00:29:06,VALID,918.447,VALID,0.0,VALID,95.445,VALID,-0.026,VALID,19.87,INVALID,360.0,VALID,0.0,
2019-05-09, 00:30:06,VALID,918.439,VALID,0.0,VALID,96.239,VALID,-0.02,VALID,19.968,INVALID,360.0,VALID,0.0,
2019-05-09, 00:31:06,VALID,918.411,VALID,0.0,VALID,96.348,VALID,-0.0,VALID,19.973,INVALID,360.0,VALID,0.0,
2019-05-09, 00:32:06,VALID,918.382,VALID,0.0,VALID,95.798,VALID,0.015,VALID,19.872,INVALID,360.0,VALID,0.0,
2019-05-09, 00:33:06,VALID,918.39,VALID,0.0,VALID,93.686,VALID,-0.008,VALID,19.665,INVALID,360.0,VALID,0.0,
2019-05-09, 00:34:06,VALID,918.409,VALID,0.0,VALID,94.845,VALID,0.0,VALID,19.606,INVALID,360.0,VALID,0.0,
2019-05-09, 00:35:06,VALID,918.443,VALID,0.0,VALID,95.46,VALID,0.023,VALID,19.549,INVALID,360.0,VALID,0.0,
2019-05-09, 00:36:06,VALID,918.465,VALID,0.0,VALID,95.28,VALID,0.028,VALID,19.525,INVALID,360.0,VALID,0.0,
2019-05-09, 00:37:06,VALID,918.447,VALID,0.0,VALID,95.758,VALID,0.026,VALID,19.56,INVALID,360.0,VALID,0.0,
2019-05-09, 00:38:06,VALID,918.419,VALID,0.0,VALID,94.943,VALID,0.026,VALID,19.468,INVALID,360.0,VALID,0.0,
2019-05-09, 00:39:06,VALID,918.421,VALID,0.0,VALID,95.047,VALID,0.024,VALID,19.456,INVALID,360.0,VALID,0.0,
2019-05-09, 00:40:06,VALID,918.413,VALID,0.0,VALID,95.978,VALID,0.024,VALID,19.457,INVALID,360.0,VALID,0.0,
2019-05-09, 00:41:06,VALID,918.417,VALID,0.0,VALID,96.417,VALID,0.013,VALID,19.477,INVALID,360.0,VALID,0.0,
2019-05-09, 00:42:06,VALID,918.412,VALID,0.0,VALID,96.022,VALID,0.021,VALID,19.304,INVALID,360.0,VALID,0.0,
2019-05-09, 00:43:06,VALID,918.401,VALID,0.0,VALID,96.658,VALID,0.012,VALID,19.413,INVALID,360.0,VALID,0.0,
2019-05-09, 00:44:06,VALID,918.422,VALID,0.0,VALID,97.989,VALID,0.007,VALID,19.575,INVALID,360.0,VALID,0.0,
2019-05-09, 00:45:06,VALID,918.425,VALID,0.0,VALID,98.192,VALID,0.014,VALID,19.621,INVALID,360.0,VALID,0.0,
2019-05-09, 00:46:06,VALID,918.417,VALID,0.0,VALID,98.459,VALID,-0.036,VALID,19.75,INVALID,360.0,VALID,0.0,
2019-05-09, 00:47:06,VALID,918.38,VALID,0.0,VALID,98.486,VALID,-0.049,VALID,19.789,INVALID,360.0,VALID,0.0,
2019-05-09, 00:48:06,VALID,918.393,VALID,0.0,VALID,98.552,VALID,-0.054,VALID,19.817,INVALID,360.0,VALID,0.0,
2019-05-09, 00:49:06,VALID,918.391,VALID,0.0,VALID,98.547,VALID,-0.054,VALID,19.828,INVALID,360.0,VALID,0.0,
2019-05-09, 00:50:06,VALID,918.382,VALID,0.0,VALID,98.285,VALID,-0.041,VALID,19.654,INVALID,360.0,VALID,0.0,
2019-05-09, 00:51:06,VALID,918.366,VALID,0.0,VALID,97.618,VALID,-0.039,VALID,19.493,INVALID,360.0,VALID,0.0,
2019-05-09, 00:52:06,VALID,918.333,VALID,0.0,VALID,97.787,VALID,-0.053,VALID,19.628,INVALID,360.0,VALID,0.0,
2019-05-09, 00:53:06,VALID,918.297,VALID,0.0,VALID,97.636,VALID,-0.057,VALID,19.62,INVALID,360.0,VALID,0.0,
2019-05-09, 00:54:06,VALID,918.279,VALID,0.0,VALID,97.54,VALID,-0.058,VALID,19.665,INVALID,360.0,VALID,0.0,
2019-05-09, 00:55:06,VALID,918.269,VALID,0.0,VALID,97.396,VALID,-0.039,VALID,19.666,INVALID,360.0,VALID,0.0,
2019-05-09, 00:56:06,VALID,918.245,VALID,0.0,VALID,96.606,VALID,-0.054,VALID,19.574,INVALID,360.0,VALID,0.0,
2019-05-09, 00:57:06,VALID,918.24,VALID,0.0,VALID,96.3,VALID,-0.071,VALID,19.582,INVALID,360.0,VALID,0.0,
2019-05-09, 00:58:06,VALID,918.205,VALID,0.0,VALID,96.699,VALID,-0.074,VALID,19.68,INVALID,360.0,VALID,0.0,
2019-05-09, 00:59:06,VALID,918.154,VALID,0.0,VALID,97.173,VALID,-0.055,VALID,19.75,INVALID,360.0,VALID,0.0,
2019-05-09, 01:00:06,VALID,918.132,VALID,0.0,VALID,97.347,VALID,-0.013,VALID,19.798,INVALID,360.0,VALID,0.0,
2019-05-09, 01:01:06,VALID,918.114,VALID,0.0,VALID,97.472,VALID,0.021,VALID,19.848,INVALID,360.0,VALID,0.0,
2019-05-09, 01:02:06,VALID,918.086,VALID,0.0,VALID,97.391,VALID,0.029,VALID,19.869,INVALID,360.0,VALID,0.0,
2019-05-09, 01:03:06,VALID,918.07,VALID,0.0,VALID,97.264,VALID,0.018,VALID,19.911,INVALID,360.0,VALID,0.0,
2019-05-09, 01:04:06,VALID,918.049,VALID,0.0,VALID,97.115,VALID,0.004,VALID,19.943,INVALID,360.0,VALID,0.0,
2019-05-09, 01:05:06,VALID,918.051,VALID,0.0,VALID,96.769,VALID,0.009,VALID,19.936,INVALID,360.0,VALID,0.0,
2019-05-09, 01:06:06,VALID,918.04,VALID,0.0,VALID,96.476,VALID,0.017,VALID,19.896,INVALID,360.0,VALID,0.0,
2019-05-09, 01:07:06,VALID,918.025,VALID,0.0,VALID,96.335,VALID,0.025,VALID,19.882,INVALID,360.0,VALID,0.0,
2019-05-09, 01:08:06,VALID,918.012,VALID,0.0,VALID,96.569,VALID,0.027,VALID,19.889,INVALID,360.0,VALID,0.0,
2019-05-09, 01:09:06,VALID,917.99,VALID,0.0,VALID,96.765,VALID,0.03,VALID,19.897,INVALID,360.0,VALID,0.0,
2019-05-09, 01:10:06,VALID,917.974,VALID,0.0,VALID,96.728,VALID,0.029,VALID,19.908,INVALID,360.0,VALID,0.0,
2019-05-09, 01:11:06,VALID,917.973,VALID,0.0,VALID,96.936,VALID,0.034,VALID,19.951,INVALID,360.0,VALID,0.0,
2019-05-09, 01:12:06,VALID,917.965,VALID,0.0,VALID,96.852,VALID,0.024,VALID,19.974,INVALID,360.0,VALID,0.0,
2019-05-09, 01:13:06,VALID,917.925,VALID,0.0,VALID,96.686,VALID,0.019,VALID,19.99,INVALID,360.0,VALID,0.0,
2019-05-09, 01:14:06,VALID,917.907,VALID,0.0,VALID,96.602,VALID,0.026,VALID,19.979,INVALID,360.0,VALID,0.0,
2019-05-09, 01:15:06,VALID,917.89,VALID,0.0,VALID,96.528,VALID,0.017,VALID,19.965,INVALID,360.0,VALID,0.0,
2019-05-09, 01:16:06,VALID,917.868,VALID,0.0,VALID,96.554,VALID,-0.013,VALID,19.952,INVALID,360.0,VALID,0.0,
2019-05-09, 01:17:06,VALID,917.848,VALID,0.0,VALID,96.358,VALID,-0.019,VALID,19.897,INVALID,360.0,VALID,0.0,
2019-05-09, 01:18:06,VALID,917.828,VALID,0.0,VALID,96.517,VALID,-0.028,VALID,19.882,INVALID,360.0,VALID,0.0,
2019-05-09, 01:19:06,VALID,917.801,VALID,0.0,VALID,96.646,VALID,-0.025,VALID,19.837,INVALID,360.0,VALID,0.0,
2019-05-09, 01:20:06,VALID,917.787,VALID,0.0,VALID,96.613,VALID,-0.044,VALID,19.798,INVALID,360.0,VALID,0.0,
2019-05-09, 01:21:06,VALID,917.804,VALID,0.0,VALID,96.715,VALID,-0.026,VALID,19.742,INVALID,360.0,VALID,0.0,
2019-05-09, 01:22:06,VALID,917.814,VALID,0.0,VALID,96.16,VALID,-0.044,VALID,19.634,INVALID,360.0,VALID,0.0,
2019-05-09, 01:23:06,VALID,917.826,VALID,0.0,VALID,96.159,VALID,-0.026,VALID,19.606,INVALID,360.0,VALID,0.0,
2019-05-09, 01:24:06,VALID,917.823,VALID,0.0,VALID,96.357,VALID,-0.026,VALID,19.61,INVALID,360.0,VALID,0.0,
2019-05-09, 01:25:06,VALID,917.815,VALID,0.0,VALID,96.703,VALID,-0.015,VALID,19.608,INVALID,360.0,VALID,0.0,
2019-05-09, 01:26:06,VALID,917.797,VALID,0.0,VALID,96.756,VALID,-0.015,VALID,19.58,INVALID,360.0,VALID,0.0,
2019-05-09, 01:27:07,VALID,917.787,VALID,0.0,VALID,96.952,VALID,-0.015,VALID,19.594,INVALID,360.0,VALID,0.0,
2019-05-09, 01:28:07,VALID,917.752,VALID,0.0,VALID,96.811,VALID,-0.018,VALID,19.547,INVALID,360.0,VALID,0.0,
2019-05-09, 01:29:07,VALID,917.721,VALID,0.0,VALID,96.748,VALID,-0.029,VALID,19.541,INVALID,360.0,VALID,0.0,
2019-05-09, 01:30:07,VALID,917.682,VALID,0.0,VALID,97.501,VALID,-0.005,VALID,19.626,INVALID,360.0,VALID,0.0,
2019-05-09, 01:31:07,VALID,917.644,VALID,0.0,VALID,97.713,VALID,0.049,VALID,19.617,INVALID,360.0,VALID,0.0,
2019-05-09, 01:32:07,VALID,917.633,VALID,0.0,VALID,97.521,VALID,0.04,VALID,19.536,INVALID,360.0,VALID,0.0,
2019-05-09, 01:33:07,VALID,917.599,VALID,0.0,VALID,97.694,VALID,0.043,VALID,19.556,INVALID,360.0,VALID,0.0,
2019-05-09, 01:34:07,VALID,917.59,VALID,0.0,VALID,98.027,VALID,0.044,VALID,19.63,INVALID,360.0,VALID,0.0,
2019-05-09, 01:35:07,VALID,917.567,VALID,0.0,VALID,98.155,VALID,0.045,VALID,19.64,INVALID,360.0,VALID,0.0,
2019-05-09, 01:36:07,VALID,917.532,VALID,0.0,VALID,98.102,VALID,0.055,VALID,19.582,INVALID,360.0,VALID,0.0,
2019-05-09, 01:37:07,VALID,917.522,VALID,0.0,VALID,97.88,VALID,0.042,VALID,19.465,INVALID,360.0,VALID,0.0,
2019-05-09, 01:38:07,VALID,917.482,VALID,0.0,VALID,97.571,VALID,0.062,VALID,19.372,INVALID,360.0,VALID,0.0,
2019-05-09, 01:39:07,VALID,917.469,VALID,0.0,VALID,97.519,VALID,0.068,VALID,19.361,INVALID,360.0,VALID,0.0,
2019-05-09, 01:40:07,VALID,917.479,VALID,0.0,VALID,98.041,VALID,0.063,VALID,19.493,INVALID,360.0,VALID,0.0,
2019-05-09, 01:41:07,VALID,917.475,VALID,0.0,VALID,98.258,VALID,0.062,VALID,19.542,INVALID,360.0,VALID,0.0,
2019-05-09, 01:42:07,VALID,917.467,VALID,0.0,VALID,98.099,VALID,0.056,VALID,19.466,INVALID,360.0,VALID,0.0,
2019-05-09, 01:43:07,VALID,917.435,VALID,0.0,VALID,97.684,VALID,0.055,VALID,19.319,INVALID,360.0,VALID,0.0,
2019-05-09, 01:44:07,VALID,917.39,VALID,0.0,VALID,97.363,VALID,0.058,VALID,19.219,INVALID,360.0,VALID,0.0,
2019-05-09, 01:45:07,VALID,917.361,VALID,0.0,VALID,97.471,VALID,0.038,VALID,19.184,INVALID,360.0,VALID,0.0,
2019-05-09, 01:46:07,VALID,917.339,VALID,0.0,VALID,97.751,VALID,-0.005,VALID,19.186,INVALID,360.0,VALID,0.0,
2019-05-09, 01:47:07,VALID,917.304,VALID,0.0,VALID,97.951,VALID,-0.003,VALID,19.185,INVALID,360.0,VALID,0.0,
2019-05-09, 01:48:07,VALID,917.299,VALID,0.0,VALID,97.901,VALID,0.003,VALID,19.121,INVALID,360.0,VALID,0.0,
2019-05-09, 01:49:07,VALID,917.277,VALID,0.0,VALID,98.095,VALID,-0.013,VALID,19.149,INVALID,360.0,VALID,0.0,
2019-05-09, 01:50:07,VALID,917.264,VALID,0.0,VALID,98.508,VALID,0.002,VALID,19.355,INVALID,360.0,VALID,0.0,
2019-05-09, 01:51:07,VALID,917.245,VALID,0.0,VALID,98.768,VALID,-0.013,VALID,19.527,INVALID,360.0,VALID,0.0,
2019-05-09, 01:52:07,VALID,917.256,VALID,0.0,VALID,98.649,VALID,-0.014,VALID,19.456,INVALID,360.0,VALID,0.0,
2019-05-09, 01:53:07,VALID,917.246,VALID,0.0,VALID,98.591,VALID,-0.022,VALID,19.377,INVALID,360.0,VALID,0.0,
2019-05-09, 01:54:07,VALID,917.245,VALID,0.0,VALID,98.795,VALID,0.006,VALID,19.5,INVALID,360.0,VALID,0.0,
2019-05-09, 01:55:07,VALID,917.257,VALID,0.0,VALID,98.901,VALID,0.003,VALID,19.627,INVALID,360.0,VALID,0.0,
2019-05-09, 01:56:07,VALID,917.269,VALID,0.0,VALID,98.858,VALID,-0.007,VALID,19.631,INVALID,360.0,VALID,0.0,
2019-05-09, 01:57:07,VALID,917.3,VALID,0.0,VALID,98.576,VALID,-0.004,VALID,19.425,INVALID,360.0,VALID,0.0,
2019-05-09, 01:58:07,VALID,917.297,VALID,0.0,VALID,98.635,VALID,-0.013,VALID,19.437,INVALID,360.0,VALID,0.0,
2019-05-09, 01:59:07,VALID,917.267,VALID,0.0,VALID,98.84,VALID,-0.016,VALID,19.64,INVALID,360.0,VALID,0.0,
2019-05-09, 02:00:07,VALID,917.269,VALID,0.0,VALID,98.836,VALID,-0.003,VALID,19.68,INVALID,360.0,VALID,0.0,
2019-05-09, 02:01:07,VALID,917.248,VALID,0.0,VALID,98.363,VALID,0.04,VALID,19.411,INVALID,360.0,VALID,0.0,
2019-05-09, 02:02:07,VALID,917.226,VALID,0.0,VALID,98.408,VALID,0.042,VALID,19.427,INVALID,360.0,VALID,0.0,
2019-05-09, 02:03:07,VALID,917.222,VALID,0.0,VALID,97.674,VALID,0.039,VALID,19.169,INVALID,360.0,VALID,0.0,
2019-05-09, 02:04:07,VALID,917.216,VALID,0.0,VALID,97.602,VALID,0.012,VALID,19.155,INVALID,360.0,VALID,0.0,
2019-05-09, 02:05:07,VALID,917.234,VALID,0.0,VALID,97.415,VALID,0.036,VALID,19.104,INVALID,360.0,VALID,0.0,
2019-05-09, 02:06:07,VALID,917.217,VALID,0.0,VALID,97.729,VALID,0.045,VALID,19.187,INVALID,360.0,VALID,0.0,
2019-05-09, 02:07:07,VALID,917.216,VALID,0.0,VALID,97.687,VALID,0.041,VALID,19.113,INVALID,360.0,VALID,0.0,
2019-05-09, 02:08:07,VALID,917.214,VALID,0.0,VALID,97.826,VALID,0.037,VALID,19.206,INVALID,360.0,VALID,0.0,
2019-05-09, 02:09:07,VALID,917.199,VALID,0.0,VALID,98.271,VALID,0.033,VALID,19.31,INVALID,360.0,VALID,0.0,
2019-05-09, 02:10:07,VALID,917.172,VALID,0.0,VALID,98.307,VALID,0.039,VALID,19.349,INVALID,360.0,VALID,0.0,
2019-05-09, 02:11:07,VALID,917.165,VALID,0.0,VALID,98.37,VALID,0.034,VALID,19.359,INVALID,360.0,VALID,0.0,
2019-05-09, 02:12:07,VALID,917.171,VALID,0.0,VALID,98.428,VALID,0.032,VALID,19.373,INVALID,360.0,VALID,0.0,
2019-05-09, 02:13:07,VALID,917.16,VALID,0.0,VALID,98.46,VALID,0.032,VALID,19.379,INVALID,360.0,VALID,0.0,
2019-05-09, 02:14:07,VALID,917.156,VALID,0.0,VALID,98.575,VALID,0.026,VALID,19.451,INVALID,360.0,VALID,0.0,
2019-05-09, 02:15:07,VALID,917.118,VALID,0.0,VALID,98.693,VALID,0.004,VALID,19.53,INVALID,360.0,VALID,0.0,
2019-05-09, 02:16:07,VALID,917.096,VALID,0.0,VALID,98.66,VALID,-0.016,VALID,19.512,INVALID,360.0,VALID,0.0,
2019-05-09, 02:17:07,VALID,917.1,VALID,0.0,VALID,98.559,VALID,-0.016,VALID,19.427,INVALID,360.0,VALID,0.0,
2019-05-09, 02:18:07,VALID,917.124,VALID,0.0,VALID,98.441,VALID,-0.016,VALID,19.33,INVALID,360.0,VALID,0.0,
2019-05-09, 02:19:07,VALID,917.142,VALID,0.0,VALID,97.964,VALID,0.001,VALID,19.15,INVALID,360.0,VALID,0.0,
2019-05-09, 02:20:07,VALID,917.11,VALID,0.0,VALID,97.582,VALID,-0.011,VALID,19.104,INVALID,360.0,VALID,0.0,
2019-05-09, 02:21:07,VALID,917.082,VALID,0.0,VALID,97.437,VALID,-0.004,VALID,19.124,INVALID,360.0,VALID,0.0,
2019-05-09, 02:22:07,VALID,917.045,VALID,0.0,VALID,97.082,VALID,-0.025,VALID,19.02,INVALID,360.0,VALID,0.0,
2019-05-09, 02:23:07,VALID,917.058,VALID,0.0,VALID,97.09,VALID,-0.025,VALID,18.935,INVALID,360.0,VALID,0.0,
2019-05-09, 02:24:07,VALID,917.067,VALID,0.0,VALID,97.304,VALID,-0.023,VALID,18.949,INVALID,360.0,VALID,0.0,
2019-05-09, 02:25:07,VALID,917.088,VALID,0.0,VALID,98.054,VALID,-0.015,VALID,19.087,INVALID,360.0,VALID,0.0,
2019-05-09, 02:26:07,VALID,917.088,VALID,0.0,VALID,98.164,VALID,-0.021,VALID,19.059,INVALID,360.0,VALID,0.0,
2019-05-09, 02:27:07,VALID,917.097,VALID,0.0,VALID,98.408,VALID,-0.011,VALID,19.144,INVALID,360.0,VALID,0.0,
2019-05-09, 02:28:07,VALID,917.089,VALID,0.0,VALID,98.769,VALID,-0.008,VALID,19.339,INVALID,360.0,VALID,0.0,
2019-05-09, 02:29:07,VALID,917.06,VALID,0.0,VALID,98.547,VALID,-0.011,VALID,19.11,INVALID,360.0,VALID,0.0,
2019-05-09, 02:30:07,VALID,917.013,VALID,0.0,VALID,98.244,VALID,-0.006,VALID,18.894,INVALID,360.0,VALID,0.0,
2019-05-09, 02:31:07,VALID,916.953,VALID,0.0,VALID,98.316,VALID,0.024,VALID,18.89,INVALID,360.0,VALID,0.0,
2019-05-09, 02:32:07,VALID,916.935,VALID,0.0,VALID,98.123,VALID,0.039,VALID,18.755,INVALID,360.0,VALID,0.0,
2019-05-09, 02:33:07,VALID,916.901,VALID,0.0,VALID,97.991,VALID,0.045,VALID,18.726,INVALID,360.0,VALID,0.0,
2019-05-09, 02:34:07,VALID,916.902,VALID,0.0,VALID,98.487,VALID,0.047,VALID,18.943,INVALID,360.0,VALID,0.0,
2019-05-09, 02:35:07,VALID,916.895,VALID,0.0,VALID,98.699,VALID,0.05,VALID,19.075,INVALID,360.0,VALID,0.0,
2019-05-09, 02:36:07,VALID,916.88,VALID,0.0,VALID,98.655,VALID,0.03,VALID,19.013,INVALID,360.0,VALID,0.0,
2019-05-09, 02:37:07,VALID,916.856,VALID,0.0,VALID,98.565,VALID,0.04,VALID,18.903,INVALID,360.0,VALID,0.0,
2019-05-09, 02:38:07,VALID,916.848,VALID,0.0,VALID,98.622,VALID,0.029,VALID,18.889,INVALID,360.0,VALID,0.0,
2019-05-09, 02:39:07,VALID,916.821,VALID,0.0,VALID,98.724,VALID,0.042,VALID,18.934,INVALID,360.0,VALID,0.0,
2019-05-09, 02:40:07,VALID,916.801,VALID,0.0,VALID,98.73,VALID,0.055,VALID,18.95,INVALID,360.0,VALID,0.0,
2019-05-09, 02:41:07,VALID,916.806,VALID,0.0,VALID,98.762,VALID,0.042,VALID,18.991,INVALID,360.0,VALID,0.0,
2019-05-09, 02:42:07,VALID,916.783,VALID,0.0,VALID,98.868,VALID,0.025,VALID,19.068,INVALID,360.0,VALID,0.0,
2019-05-09, 02:43:07,VALID,916.772,VALID,0.0,VALID,98.826,VALID,0.03,VALID,19.024,INVALID,360.0,VALID,0.0,
2019-05-09, 02:44:07,VALID,916.74,VALID,0.0,VALID,98.734,VALID,0.029,VALID,18.926,INVALID,360.0,VALID,0.0,
2019-05-09, 02:45:07,VALID,916.723,VALID,0.0,VALID,98.87,VALID,0.009,VALID,18.99,INVALID,360.0,VALID,0.0,
2019-05-09, 02:46:07,VALID,916.72,VALID,0.0,VALID,98.95,VALID,-0.017,VALID,19.085,INVALID,360.0,VALID,0.0,
2019-05-09, 02:47:07,VALID,916.687,VALID,0.0,VALID,98.984,VALID,-0.014,VALID,19.133,INVALID,360.0,VALID,0.0,
2019-05-09, 02:48:07,VALID,916.698,VALID,0.0,VALID,99.01,VALID,-0.02,VALID,19.17,INVALID,360.0,VALID,0.0,
2019-05-09, 02:49:07,VALID,916.668,VALID,0.0,VALID,98.983,VALID,-0.03,VALID,19.151,INVALID,360.0,VALID,0.0,
2019-05-09, 02:50:07,VALID,916.68,VALID,0.0,VALID,98.851,VALID,-0.024,VALID,18.981,INVALID,360.0,VALID,0.0,
2019-05-09, 02:51:07,VALID,916.727,VALID,0.0,VALID,98.665,VALID,-0.007,VALID,18.757,INVALID,360.0,VALID,0.0,
2019-05-09, 02:52:07,VALID,916.739,VALID,0.0,VALID,98.676,VALID,-0.011,VALID,18.709,INVALID,360.0,VALID,0.0,
2019-05-09, 02:53:07,VALID,916.746,VALID,0.0,VALID,98.892,VALID,-0.01,VALID,18.858,INVALID,360.0,VALID,0.0,
2019-05-09, 02:54:07,VALID,916.729,VALID,0.0,VALID,99.001,VALID,-0.042,VALID,19.014,INVALID,360.0,VALID,0.0,
2019-05-09, 02:55:07,VALID,916.726,VALID,0.0,VALID,98.981,VALID,-0.024,VALID,19.041,INVALID,360.0,VALID,0.0,
2019-05-09, 02:56:07,VALID,916.753,VALID,0.0,VALID,98.821,VALID,0.011,VALID,18.901,INVALID,360.0,VALID,0.0,
2019-05-09, 02:57:07,VALID,916.767,VALID,0.0,VALID,98.93,VALID,-0.01,VALID,18.883,INVALID,360.0,VALID,0.0,
2019-05-09, 02:58:07,VALID,916.767,VALID,0.0,VALID,98.869,VALID,-0.017,VALID,18.818,INVALID,360.0,VALID,0.0,
2019-05-09, 02:59:07,VALID,916.727,VALID,0.0,VALID,98.852,VALID,0.001,VALID,18.763,INVALID,360.0,VALID,0.0,
2019-05-09, 03:00:07,VALID,916.708,VALID,0.0,VALID,98.848,VALID,0.001,VALID,18.706,INVALID,360.0,VALID,0.0,
2019-05-09, 03:01:07,VALID,916.704,VALID,0.0,VALID,98.886,VALID,0.078,VALID,18.727,INVALID,360.0,VALID,0.0,
2019-05-09, 03:02:07,VALID,916.71,VALID,0.0,VALID,99.041,VALID,0.076,VALID,18.861,INVALID,360.0,VALID,0.0,
2019-05-09, 03:03:07,VALID,916.71,VALID,0.0,VALID,98.965,VALID,0.061,VALID,18.815,INVALID,360.0,VALID,0.0,
2019-05-09, 03:04:07,VALID,916.696,VALID,0.0,VALID,98.893,VALID,0.045,VALID,18.731,INVALID,360.0,VALID,0.0,
2019-05-09, 03:05:07,VALID,916.681,VALID,0.0,VALID,98.952,VALID,0.073,VALID,18.749,INVALID,360.0,VALID,0.0,
2019-05-09, 03:06:07,VALID,916.626,VALID,0.0,VALID,99.109,VALID,0.068,VALID,18.907,INVALID,360.0,VALID,0.0,
2019-05-09, 03:07:07,VALID,916.609,VALID,0.0,VALID,99.124,VALID,0.07,VALID,19.005,INVALID,360.0,VALID,0.0,
2019-05-09, 03:08:07,VALID,916.627,VALID,0.0,VALID,99.161,VALID,0.071,VALID,19.101,INVALID,360.0,VALID,0.0,
2019-05-09, 03:09:07,VALID,916.657,VALID,0.0,VALID,99.199,VALID,0.064,VALID,19.185,INVALID,360.0,VALID,0.0,
2019-05-09, 03:10:07,VALID,916.667,VALID,0.0,VALID,99.138,VALID,0.071,VALID,19.162,INVALID,360.0,VALID,0.0,
2019-05-09, 03:11:07,VALID,916.667,VALID,0.0,VALID,99.051,VALID,0.068,VALID,19.081,INVALID,360.0,VALID,0.0,
2019-05-09, 03:12:07,VALID,916.647,VALID,0.0,VALID,99.05,VALID,0.082,VALID,19.0,INVALID,360.0,VALID,0.0,
2019-05-09, 03:13:07,VALID,916.646,VALID,0.0,VALID,98.94,VALID,0.088,VALID,18.845,INVALID,360.0,VALID,0.0,
2019-05-09, 03:14:07,VALID,916.67,VALID,0.0,VALID,98.946,VALID,0.069,VALID,18.798,INVALID,360.0,VALID,0.0,
2019-05-09, 03:15:07,VALID,916.685,VALID,0.0,VALID,98.979,VALID,0.025,VALID,18.802,INVALID,360.0,VALID,0.0,
2019-05-09, 03:16:07,VALID,916.699,VALID,0.0,VALID,99.04,VALID,-0.096,VALID,18.881,INVALID,360.0,VALID,0.0,
2019-05-09, 03:17:07,VALID,916.699,VALID,0.0,VALID,99.08,VALID,-0.073,VALID,18.979,INVALID,360.0,VALID,0.0,
2019-05-09, 03:18:07,VALID,916.691,VALID,0.0,VALID,99.06,VALID,-0.074,VALID,19.002,INVALID,360.0,VALID,0.0,
2019-05-09, 03:19:07,VALID,916.675,VALID,0.0,VALID,99.122,VALID,-0.08,VALID,19.077,INVALID,360.0,VALID,0.0,
2019-05-09, 03:20:07,VALID,916.669,VALID,0.0,VALID,99.153,VALID,-0.057,VALID,19.152,INVALID,360.0,VALID,0.0,
2019-05-09, 03:21:07,VALID,916.655,VALID,0.0,VALID,99.167,VALID,-0.071,VALID,19.223,INVALID,360.0,VALID,0.0,
2019-05-09, 03:22:07,VALID,916.658,VALID,0.0,VALID,99.183,VALID,-0.071,VALID,19.249,INVALID,360.0,VALID,0.0,
2019-05-09, 03:23:07,VALID,916.679,VALID,0.0,VALID,99.152,VALID,-0.062,VALID,19.222,INVALID,360.0,VALID,0.0,
2019-05-09, 03:24:07,VALID,916.686,VALID,0.0,VALID,99.164,VALID,-0.056,VALID,19.235,INVALID,360.0,VALID,0.0,
2019-05-09, 03:25:07,VALID,916.651,VALID,0.0,VALID,99.158,VALID,-0.064,VALID,19.212,INVALID,360.0,VALID,0.0,
2019-05-09, 03:26:07,VALID,916.623,VALID,0.0,VALID,99.163,VALID,-0.073,VALID,19.238,INVALID,360.0,VALID,0.0,
2019-05-09, 03:27:07,VALID,916.609,VALID,0.0,VALID,99.177,VALID,-0.079,VALID,19.263,INVALID,360.0,VALID,0.0,
2019-05-09, 03:28:07,VALID,916.597,VALID,0.0,VALID,99.202,VALID,-0.073,VALID,19.31,INVALID,360.0,VALID,0.0,
2019-05-09, 03:29:07,VALID,916.589,VALID,0.0,VALID,99.242,VALID,-0.077,VALID,19.409,INVALID,360.0,VALID,0.0,
2019-05-09, 03:30:07,VALID,916.597,VALID,0.0,VALID,99.229,VALID,-0.046,VALID,19.409,INVALID,360.0,VALID,0.0,
2019-05-09, 03:31:07,VALID,916.608,VALID,0.0,VALID,99.196,VALID,-0.014,VALID,19.38,INVALID,360.0,VALID,0.0,
2019-05-09, 03:32:06,VALID,916.601,VALID,0.0,VALID,99.203,VALID,-0.025,VALID,19.386,INVALID,360.0,VALID,0.0,
2019-05-09, 03:33:06,VALID,916.596,VALID,0.0,VALID,99.222,VALID,-0.027,VALID,19.434,INVALID,360.0,VALID,0.0,
2019-05-09, 03:34:06,VALID,916.6,VALID,0.0,VALID,99.219,VALID,-0.031,VALID,19.476,INVALID,360.0,VALID,0.0,
2019-05-09, 03:35:06,VALID,916.604,VALID,0.0,VALID,99.217,VALID,-0.023,VALID,19.472,INVALID,360.0,VALID,0.0,
2019-05-09, 03:36:06,VALID,916.597,VALID,0.0,VALID,99.135,VALID,-0.031,VALID,19.424,INVALID,360.0,VALID,0.0,
2019-05-09, 03:37:06,VALID,916.606,VALID,0.0,VALID,99.211,VALID,-0.025,VALID,19.539,INVALID,360.0,VALID,0.0,
2019-05-09, 03:38:06,VALID,916.61,VALID,0.0,VALID,99.242,VALID,-0.018,VALID,19.676,INVALID,360.0,VALID,0.0,